Worcester, MA

5:32 PM EST on February 23, 2017 (GMT -0500)
Worcester Regional

Weather History for KORH - December, 2013

Change the Weather History Date:

Monday, December 2, 2013

  Actual Average Record
Temperature  
Mean Temperature 35 °F 34 °F  
Max Temperature 38 °F 41 °F 64 °F (1932)
Min Temperature 31 °F 28 °F 4 °F (1989)
Degree Days  
Heating Degree Days 30 31  
Month to date heating degree days 63 61  
Since 1 July heating degree days 1475 1463  
Cooling Degree Days 0 0  
Month to date cooling degree days 0 0  
Year to date cooling degree days 572 471  
Moisture  
Dew Point 34 °F    
Average Humidity 96    
Maximum Humidity 100    
Minimum Humidity 92    
Precipitation  
Precipitation 0.00 in 0.13 in 2.21 in (1974)
Month to date precipitation 0.08 0.26  
Year to date precipitation 41.38 44.51  
Sea Level Pressure  
Sea Level Pressure 29.94 in    
Wind  
Wind Speed 2 mph (North)    
Max Wind Speed 9 mph    
Max Gust Speed 12 mph    
Visibility 2 miles    
Events Fog    
T = Trace of Precipitation, MM = Missing Value Source: NWS Daily Summary

Daily Weather History Graph

Daily Weather History Graph

Search for Another Location

Airport or City:

Trip Planner

Search our weather history database for the weather conditions in past years. The results will help you decide how hot, cold, wet, or windy it might be!

Date:

Astronomy

Dec. 02, 2013 Rise Set
Actual Time 6:58 AM EST 4:15 PM EST
Civil Twilight 6:26 AM EST 4:47 PM EST
Nautical Twilight 5:51 AM EST 5:22 PM EST
Astronomical Twilight 5:17 AM EST 5:55 PM EST
Moon 6:19 AM EST (12/2) 4:16 PM EST (12/2)
Length of Visible Light 10h 20m
Length of Day
9h 17m
Waning Crescent, 0% of the Moon is Illuminated
Dec 2
Waning Crescent
Dec 2
New
Dec 9
First Quarter
Dec 17
Full
Dec 25
Last Quarter

Hourly Weather History & Observations

Time (EST) Temp. Windchill Dew Point Humidity Pressure Visibility Wind Dir Wind Speed Gust Speed Precip Events Conditions
12:54 AM 35.1 °F 30.1 °F 35.1 °F 100% 30.01 in 0.2 mi North 5.8 mph - N/A Fog Fog
1:54 AM 35.1 °F 30.1 °F 35.1 °F 100% 30.01 in 0.2 mi NNE 5.8 mph - N/A Fog Fog
2:19 AM 35.1 °F 29.3 °F 35.1 °F 100% 29.97 in 0.2 mi NNE 6.9 mph - N/A Fog Fog
2:54 AM 35.1 °F 31.0 °F 35.1 °F 100% 30.00 in 0.2 mi NNE 4.6 mph - N/A Fog Fog
3:54 AM 35.1 °F 30.1 °F 35.1 °F 100% 29.99 in 0.2 mi NNE 5.8 mph - N/A Fog Fog
4:54 AM 35.1 °F 29.3 °F 34.0 °F 96% 29.98 in 0.2 mi NNE 6.9 mph - N/A Fog Fog
5:01 AM 35.1 °F 31.0 °F 35.1 °F 100% 29.96 in 0.2 mi NNE 4.6 mph - N/A Fog Fog
5:54 AM 34.0 °F 31.0 °F 34.0 °F 100% 29.99 in 0.2 mi ENE 3.5 mph - N/A Fog Fog
6:54 AM 34.0 °F 28.8 °F 34.0 °F 100% 29.98 in 0.2 mi North 5.8 mph - N/A Fog Fog
7:54 AM 34.0 °F 28.8 °F 34.0 °F 100% 29.98 in 0.2 mi ENE 5.8 mph - N/A Fog Fog
8:54 AM 34.0 °F 29.8 °F 34.0 °F 100% 29.99 in 0.2 mi NNE 4.6 mph - N/A Fog Fog
9:15 AM 34.0 °F 31.0 °F 34.0 °F 100% 29.96 in 0.2 mi NNW 3.5 mph - N/A Fog Fog
9:29 AM 35.1 °F - 35.1 °F 100% 29.95 in 0.5 mi Calm Calm - N/A Fog Fog
9:38 AM 35.1 °F - 35.1 °F 100% 29.96 in 0.8 mi Calm Calm - N/A   Mist
9:44 AM 35.1 °F - 35.1 °F 100% 29.96 in 2.0 mi Calm Calm - N/A   Overcast
9:54 AM 35.1 °F - 35.1 °F 100% 29.99 in 2.0 mi Calm Calm - N/A   Overcast
10:54 AM 36.0 °F - 36.0 °F 100% 29.97 in 2.0 mi Calm Calm - N/A   Overcast
11:54 AM 37.0 °F - 36.0 °F 96% 29.97 in 2.0 mi Calm Calm - N/A   Overcast
12:54 PM 37.0 °F - 36.0 °F 96% 29.94 in 2.0 mi Calm Calm - N/A   Overcast
1:08 PM 37.0 °F - 36.0 °F 96% 29.91 in 3.0 mi Calm Calm - N/A   Overcast
1:27 PM 37.0 °F 34.5 °F 36.0 °F 96% 29.90 in 10.0 mi WNW 3.5 mph - N/A   Overcast
1:50 PM 37.4 °F - 37.4 °F 100% 29.90 in 5.0 mi Calm Calm - N/A   Overcast
1:54 PM 37.9 °F - 37.0 °F 97% 29.93 in 6.0 mi Calm Calm - N/A   Overcast
2:38 PM 37.9 °F 33.5 °F 36.0 °F 93% 29.89 in 10.0 mi NW 5.8 mph - N/A   Overcast
2:54 PM 37.9 °F - 35.1 °F 89% 29.92 in 10.0 mi Calm Calm - N/A   Overcast
3:54 PM 37.9 °F - 35.1 °F 89% 29.92 in 10.0 mi Calm Calm - N/A   Overcast
4:54 PM 37.0 °F 33.3 °F 36.0 °F 96% 29.95 in 8.0 mi Variable 4.6 mph - N/A   Overcast
5:54 PM 35.1 °F - 35.1 °F 100% 29.94 in 7.0 mi Calm Calm - N/A   Overcast
6:54 PM 34.0 °F - 34.0 °F 100% 29.95 in 5.0 mi Calm Calm - N/A   Partly Cloudy
7:09 PM 34.0 °F 31.0 °F 33.1 °F 96% 29.91 in 1.5 mi WNW 3.5 mph - N/A   Clear
7:11 PM 33.1 °F 28.7 °F 33.1 °F 100% 29.91 in 1.0 mi WNW 4.6 mph - N/A   Mist
7:18 PM 32.0 °F 26.4 °F 32.0 °F 100% 29.90 in 0.5 mi NW 5.8 mph - N/A Fog Fog
7:30 PM 32.0 °F 28.7 °F 32.0 °F 100% 29.90 in 1.2 mi North 3.5 mph - N/A   Partly Cloudy
7:38 PM 32.0 °F 28.7 °F 32.0 °F 100% 29.90 in 3.0 mi North 3.5 mph - N/A   Partly Cloudy
7:43 PM 32.0 °F 28.7 °F 32.0 °F 100% 29.90 in 1.5 mi NNW 3.5 mph - N/A   Scattered Clouds
7:46 PM 32.0 °F 28.7 °F 32.0 °F 100% 29.90 in 0.8 mi North 3.5 mph - N/A   Mist
7:54 PM 34.0 °F - 34.0 °F 100% 29.94 in 0.2 mi Calm Calm - N/A Fog Fog
8:05 PM 33.1 °F - 33.1 °F 100% 29.90 in 0.2 mi Calm Calm - N/A Fog Fog
8:54 PM 33.1 °F 30.0 °F 33.1 °F 100% 29.94 in 0.2 mi North 3.5 mph - N/A Fog Fog
9:54 PM 32.0 °F - 32.0 °F 100% 29.95 in 0.2 mi Calm Calm - N/A Fog Fog
10:14 PM 33.1 °F - 33.1 °F 100% 29.91 in 0.2 mi Calm Calm - N/A Fog Fog
10:35 PM 33.1 °F - 33.1 °F 100% 29.90 in 0.2 mi Calm Calm - N/A Fog Fog
10:54 PM 33.1 °F - 33.1 °F 100% 29.93 in 0.2 mi Calm Calm - N/A Fog Fog
11:54 PM 33.1 °F 30.0 °F 33.1 °F 100% 29.93 in 0.2 mi North 3.5 mph - N/A Fog Fog